Zurück zum Katalog

COSMOS 336

AktivMilitärLEO
NORAD 4383·PAYLOAD·🇷🇺 Russia

Gestartet Apr 25, 1970 von Plesetsk Cosmodrome

Loading…

Nächste Überflüge (nächste 24 Stunden)

TLE

AktuellSource: Space-Track

Epoche: Sep 14, 2026, 16:39 UTC

1 04383U 70036A   26257.69444071 -.00000025  00000-0 -64046-4 0  9994
2 04383  74.0262 235.7050 0014630 359.0510 173.9592 12.47664604568050

Verfolge COSMOS 336 in Echtzeit mit AllMySat

Download on the App Store